Date String (YYYY-MM-DD hh:mm:ss) UTC,Instrument flags,absolute air pressure of the measurement (hPa),sample flow rate (lpm),inlet stack bypass flow (lpm),air temperature of the measurement (°C),ambient temperature measured by the external sensor (°C),aerosol sample conditioner tube jacket temperature (°C),OPC LED temperature (°C),internal box temperature (°C),relative humidity of the measurement (%),span deviation,mass concentration of particles derived from Lorenz-Mie calculation of OPC scattering (μg/m³),mass concentration of particles derived from Lorenz-Mie calculation of OPC scattering (μg/m³),mass concentration of particles derived from Lorenz-Mie calculation of OPC scattering (μg/m³)
DateTimeUTC,F1_M11,P_M11,Q1_M11,Q2_M11,T1_M11,T2_M11,T3_M11,T4_M11,T5_M11,U1_M11,ZSPAN_M11,X0_M11,X2_M11,X1_M11
2023-07-22 05:00:00,SystemResetWarning,0837.0,5.00,000.00,029.6,028.4,000.0,037.9,031.2,29.7,0000.0,0009.18,0005.22,0004.77
2023-07-22 05:01:00,SystemResetWarning,0837.0,5.01,000.00,029.6,028.4,000.0,038.0,031.2,30.5,0000.0,0009.19,0005.25,0004.81
2023-07-22 05:02:00,SystemResetWarning,0837.0,4.99,000.00,029.6,028.4,000.0,038.0,031.2,30.6,0000.0,0008.43,0005.26,0004.84
2023-07-22 05:03:00,SystemResetWarning,0836.9,5.00,000.00,029.6,028.5,000.0,038.0,031.3,31.0,0000.0,0008.38,0005.33,0004.91
2023-07-22 05:04:00,SystemResetWarning,0836.9,5.00,000.00,029.7,028.5,000.0,038.0,031.3,31.6,0000.0,0008.31,0005.37,0004.93
2023-07-22 05:05:00,SystemResetWarning,0836.9,5.01,000.00,029.7,028.5,000.0,038.0,031.3,31.7,0000.0,0008.23,0005.35,0004.94
2023-07-22 05:06:00,SystemResetWarning,0836.9,5.00,000.00,029.7,028.5,000.0,038.1,031.3,31.6,0000.0,0008.20,0005.37,0004.97
2023-07-22 05:07:00,SystemResetWarning,0837.0,5.00,000.00,029.7,028.5,000.0,038.1,031.3,31.6,0000.0,0008.09,0005.42,0005.02
2023-07-22 05:08:00,SystemResetWarning,0836.9,4.98,000.00,029.7,027.1,000.0,038.0,031.2,31.5,0000.0,0008.05,0005.45,0005.07
2023-07-22 05:09:00,SystemResetWarning,0836.9,5.01,000.00,029.6,025.4,000.0,037.9,030.9,31.6,0000.0,0007.97,0005.48,0005.14
2023-07-22 05:10:00,SystemResetWarning,0837.0,5.01,000.00,029.5,025.0,000.0,037.8,030.7,31.8,0000.0,0007.93,0005.52,0005.21
2023-07-22 05:11:00,SystemResetWarning,0836.9,5.00,000.00,029.4,025.2,000.0,037.9,030.5,32.4,0000.0,0008.06,0005.59,0005.26
2023-07-22 05:12:00,SystemResetWarning,0837.0,5.00,000.00,029.3,025.7,000.0,037.9,030.5,32.3,0003.6,0008.11,0005.62,0005.31
2023-07-22 05:13:00,SystemResetWarning,0837.0,5.00,000.00,029.3,026.1,000.0,037.9,030.6,32.2,0003.3,0008.17,0005.67,0005.36
2023-07-22 05:14:00,SystemResetWarning,0837.0,5.00,000.00,029.3,026.4,000.0,037.8,030.6,32.3,0003.1,0008.29,0005.74,0005.42
2023-07-22 05:15:00,SystemResetWarning,0837.0,5.01,000.00,029.2,026.7,000.0,037.8,030.7,32.3,0001.9,0008.35,0005.82,0005.52
2023-07-22 05:16:00,SystemResetWarning,0836.9,5.00,000.00,029.2,027.0,000.0,037.8,030.7,32.0,0002.9,0008.48,0005.96,0005.66
2023-07-22 05:17:00,SystemResetWarning,0836.9,4.99,000.00,029.3,027.2,000.0,037.8,030.8,31.8,0001.3,0008.57,0006.06,0005.76
2023-07-22 05:18:00,SystemResetWarning,0836.8,5.00,000.00,029.3,027.4,000.0,037.8,030.8,31.8,0000.2,0008.89,0006.19,0005.87
2023-07-22 05:19:00,SystemResetWarning,0836.9,5.00,000.00,029.3,027.5,000.0,037.8,030.8,31.7,0001.0,0009.08,0006.33,0005.97
2023-07-22 05:20:00,SystemResetWarning,0836.9,5.00,000.00,029.3,027.6,000.0,037.8,030.9,31.6,-000.4,0009.29,0006.44,0006.04
2023-07-22 05:21:00,SystemResetWarning,0836.8,5.01,000.00,029.3,027.7,000.0,037.8,030.9,31.5,-000.9,0009.31,0006.48,0006.09
2023-07-22 05:22:00,SystemResetWarning,0836.9,5.00,000.00,029.3,027.8,000.0,037.8,030.9,31.4,-001.1,0009.35,0006.52,0006.12
2023-07-22 05:23:00,SystemResetWarning,0836.8,5.00,000.00,029.3,027.9,000.0,037.8,030.9,31.4,-001.3,0009.40,0006.57,0006.16
2023-07-22 05:24:00,SystemResetWarning,0836.8,5.00,000.00,029.4,027.9,000.0,037.8,031.0,31.3,-001.7,0009.67,0006.62,0006.18
2023-07-22 05:25:00,SystemResetWarning,0836.9,4.99,000.00,029.4,028.0,000.0,037.8,031.0,31.2,-001.7,0009.70,0006.60,0006.17
2023-07-22 05:26:00,SystemResetWarning,0836.8,5.00,000.00,029.4,028.0,000.0,037.8,031.0,31.1,-001.9,0009.64,0006.56,0006.14
2023-07-22 05:27:00,SystemResetWarning,0836.8,5.01,000.00,029.4,028.1,000.0,037.9,031.0,31.0,-002.2,0009.73,0006.52,0006.10
2023-07-22 05:28:00,SystemResetWarning,0836.7,5.01,000.00,029.4,028.1,000.0,037.9,031.0,30.7,-002.3,0009.72,0006.48,0006.03
2023-07-22 05:29:00,SystemResetWarning,0836.8,5.00,000.00,029.5,028.1,000.0,037.9,031.1,30.4,-002.0,0009.42,0006.38,0005.96
2023-07-22 05:30:00,SystemResetWarning,0836.8,5.00,000.00,029.5,028.2,000.0,037.9,031.1,30.4,-001.9,0009.37,0006.32,0005.91
2023-07-22 05:31:00,SystemResetWarning,0836.8,4.98,000.00,029.5,028.2,000.0,037.9,031.1,30.7,-001.8,0009.27,0006.25,0005.86
2023-07-22 05:32:00,SystemResetWarning,0836.8,5.00,000.00,029.5,028.2,000.0,037.9,031.1,30.7,-001.9,0009.23,0006.23,0005.83
2023-07-22 05:33:00,SystemResetWarning,0836.7,4.99,000.00,029.5,028.3,000.0,037.9,031.2,30.2,-001.9,0009.19,0006.21,0005.82
2023-07-22 05:34:00,SystemResetWarning,0836.7,5.01,000.00,029.5,028.3,000.0,038.0,031.2,30.0,-002.2,0009.14,0006.18,0005.80
2023-07-22 05:35:00,SystemResetWarning,0836.7,5.00,000.00,029.6,028.3,000.0,038.0,031.2,29.5,-002.1,0009.02,0006.17,0005.79
2023-07-22 05:36:00,SystemResetWarning,0836.7,5.00,000.00,029.6,028.3,000.0,038.0,031.2,29.3,-001.8,0008.88,0006.18,0005.82
2023-07-22 05:37:00,SystemResetWarning,0836.7,5.00,000.00,029.6,028.4,000.0,038.0,031.2,29.2,-001.4,0009.02,0006.26,0005.86
2023-07-22 05:38:00,SystemResetWarning,0836.6,5.01,000.00,029.6,028.4,000.0,038.0,031.2,29.1,-000.8,0009.04,0006.33,0005.90
2023-07-22 05:39:00,SystemResetWarning,0836.6,5.00,000.00,029.7,028.4,000.0,038.1,031.3,29.1,0000.0,0009.32,0006.36,0005.95
2023-07-22 05:40:00,SystemResetWarning,0836.6,4.99,000.00,029.7,028.4,000.0,038.1,031.3,29.3,0000.2,0009.34,0006.40,0006.01
2023-07-22 05:41:00,SystemResetWarning,0836.6,4.99,000.00,029.7,028.4,000.0,038.1,031.3,29.4,0000.0,0009.35,0006.44,0006.07
2023-07-22 05:42:00,SystemResetWarning,0836.6,5.02,000.00,029.7,028.5,000.0,038.1,031.3,29.2,0000.3,0009.35,0006.50,0006.13
2023-07-22 05:43:00,SystemResetWarning,0836.6,5.01,000.00,029.7,028.5,000.0,038.1,031.3,29.0,0000.6,0009.41,0006.56,0006.19
2023-07-22 05:44:00,SystemResetWarning,0836.6,4.99,000.00,029.7,028.5,000.0,038.1,031.3,28.7,0000.7,0009.44,0006.62,0006.25
2023-07-22 05:45:00,SystemResetWarning,0836.6,5.00,000.00,029.8,028.5,000.0,038.2,031.3,28.8,0001.0,0009.51,0006.68,0006.31
2023-07-22 05:46:00,SystemResetWarning,0836.6,4.98,000.00,029.8,028.5,000.0,038.2,031.3,28.4,0001.8,0009.46,0006.74,0006.38
2023-07-22 05:47:00,SystemResetWarning,0836.6,5.00,000.00,029.8,028.1,000.0,038.2,031.3,28.5,0001.8,0009.48,0006.79,0006.42
2023-07-22 05:48:00,SystemResetWarning,0836.6,5.01,000.00,029.7,026.1,000.0,038.0,031.1,28.6,0001.6,0009.40,0006.77,0006.42
2023-07-22 05:49:00,SystemResetWarning,0836.7,5.00,000.00,029.6,025.1,000.0,037.9,030.8,28.6,0001.1,0009.90,0006.77,0006.43
2023-07-22 05:50:00,SystemResetWarning,0836.6,5.00,000.00,029.5,025.1,000.0,037.9,030.5,29.1,0000.7,0010.00,0006.78,0006.43
2023-07-22 05:51:00,SystemResetWarning,0836.7,5.01,000.00,029.4,025.5,000.0,037.9,030.5,29.1,0000.7,0010.50,0006.81,0006.44
2023-07-22 05:52:00,SystemResetWarning,0836.6,5.00,000.00,029.3,025.9,000.0,037.9,030.6,29.1,0001.1,0011.07,0006.83,0006.44
2023-07-22 05:53:00,SystemResetWarning,0836.6,5.00,000.00,029.3,026.3,000.0,037.9,030.6,29.1,0001.1,0011.12,0006.84,0006.42
2023-07-22 05:54:00,SystemResetWarning,0836.6,5.00,000.00,029.3,026.7,000.0,037.9,030.7,29.0,0001.5,0011.52,0006.82,0006.42
2023-07-22 05:55:00,SystemResetWarning,0836.7,4.99,000.00,029.3,027.0,000.0,037.9,030.7,28.8,0001.5,0011.73,0006.81,0006.40
2023-07-22 05:56:00,SystemResetWarning,0836.7,5.00,000.00,029.3,027.2,000.0,037.9,030.8,28.9,0001.2,0011.84,0006.81,0006.38
2023-07-22 05:57:00,SystemResetWarning,0836.7,5.00,000.00,029.3,027.4,000.0,037.9,030.8,29.0,0001.1,0011.84,0006.80,0006.37
2023-07-22 05:58:00,SystemResetWarning,0836.7,5.01,000.00,029.3,027.6,000.0,037.9,030.9,28.7,0000.2,0011.80,0006.76,0006.35
2023-07-22 05:59:00,SystemResetWarning,0836.7,5.01,000.00,029.3,027.7,000.0,037.9,030.9,28.6,0001.4,0011.91,0006.76,0006.34
